Time,TemperatureF,DewpointF,PressureIn,WindDirection,WindDirectionDegrees,WindSpeedMPH,WindSpeedGustMPH,Humidity,HourlyPrecipIn,Conditions,Clouds,dailyrainin,SoftwareType,DateUTC
2013-02-06 13:40:00,35.6,35.1,29.94,WNW,292,4.0,-999.0,98,-99.99,,,0.00,Acu-Link.com,2013-02-06 18:40:00,
2013-02-06 13:55:00,35.6,35.1,29.94,WNW,292,4.7,-999.0,98,-99.99,,,0.00,Acu-Link.com,2013-02-06 18:55:00,
2013-02-06 14:11:00,33.8,33.3,29.95,NNW,337,3.1,-999.0,98,-99.99,,,0.00,Acu-Link.com,2013-02-06 19:11:00,
2013-02-06 14:26:00,33.8,33.3,29.96,West,270,6.7,-999.0,98,-99.99,,,0.00,Acu-Link.com,2013-02-06 19:26:00,
2013-02-06 14:41:00,33.8,33.3,29.96,South,180,5.6,-999.0,98,-99.99,,,0.00,Acu-Link.com,2013-02-06 19:41:00,
2013-02-06 14:57:00,33.8,33.3,29.97,West,270,4.0,-999.0,98,-99.99,,,0.00,Acu-Link.com,2013-02-06 19:57:00,
2013-02-06 15:12:00,32.0,31.5,29.99,WNW,292,6.7,-999.0,98,-99.99,,,0.00,Acu-Link.com,2013-02-06 20:12:00,
2013-02-06 15:27:00,33.8,33.3,30.00,East,90,5.6,-999.0,98,-99.99,,,0.00,Acu-Link.com,2013-02-06 20:27:00,
2013-02-06 15:42:00,33.8,33.3,30.01,WNW,292,9.2,-999.0,98,-99.99,,,0.00,Acu-Link.com,2013-02-06 20:42:00,
2013-02-06 15:58:00,32.0,31.5,30.01,NNW,337,4.0,-999.0,98,-99.99,,,0.00,Acu-Link.com,2013-02-06 20:58:00,
2013-02-06 16:13:00,32.0,31.5,30.02,NNW,337,3.6,-999.0,98,-99.99,,,0.00,Acu-Link.com,2013-02-06 21:13:00,
2013-02-06 16:28:00,32.0,31.5,30.03,North,0,3.6,-999.0,98,-99.99,,,0.00,Acu-Link.com,2013-02-06 21:28:00,
2013-02-06 16:44:00,30.2,29.7,30.04,South,180,2.7,-999.0,98,-99.99,,,0.00,Acu-Link.com,2013-02-06 21:44:00,
2013-02-06 16:59:00,30.2,29.7,30.05,East,90,3.6,-999.0,98,-99.99,,,0.00,Acu-Link.com,2013-02-06 21:59:00,
2013-02-06 17:14:00,28.4,27.9,30.06,WSW,247,4.0,-999.0,98,-99.99,,,0.00,Acu-Link.com,2013-02-06 22:14:00,
2013-02-06 17:30:00,28.4,27.9,30.07,SW,225,5.6,-999.0,98,-99.99,,,0.00,Acu-Link.com,2013-02-06 22:30:00,
2013-02-06 17:45:00,28.4,27.9,30.08,ENE,67,5.1,-999.0,98,-99.99,,,0.00,Acu-Link.com,2013-02-06 22:45:00,
2013-02-06 18:00:00,28.4,27.9,30.09,WSW,247,2.7,-999.0,98,-99.99,,,0.00,Acu-Link.com,2013-02-06 23:00:00,
2013-02-06 18:15:00,28.4,27.9,30.11,East,90,3.1,-999.0,98,-99.99,,,0.00,Acu-Link.com,2013-02-06 23:15:00,
2013-02-06 18:31:00,26.6,26.1,30.11,West,270,3.1,-999.0,98,-99.99,,,0.00,Acu-Link.com,2013-02-06 23:31:00,
2013-02-06 18:46:00,26.6,26.1,30.12,South,180,4.0,-999.0,98,-99.99,,,0.00,Acu-Link.com,2013-02-06 23:46:00,
2013-02-06 19:01:00,26.6,26.1,30.14,NE,45,1.6,-999.0,98,-99.99,,,0.00,Acu-Link.com,2013-02-07 00:01:00,
2013-02-06 19:17:00,26.6,26.1,30.14,NNE,22,2.7,-999.0,98,-99.99,,,0.00,Acu-Link.com,2013-02-07 00:17:00,